BOX1232 ZSPD-EDDP

Flight info

Callsign BOX1232
Flight time N/A
Altitude 27600
Route PIK81D PIKAS G330 PIMOL A593 DALIM W157 BEKDO/K0883S0810 W157 AVBOX/K0924S0890 W157 VYK G212 SOTMU/K0895S0840 B339 ASILA A575 UPREK W28 ISBOS/K0915S0920 W28 LAGEB W66 NUKTI B215 KABDO W119 GOBOK A343 RULAD/K0904F300 M610 TIRBA/K0896F320 M610 ARBOL Z621 GENDI N147 OTBOR/N0486F320 A480 TIMGA B476 METKA L88 NIJAT N644 ADEKI DCT BADIR DCT LAGAS DCT NOLGA UG261 GONPU/N0482F340 UG261 TBN UM11 CRM UL746 ODERO DCT DINRO DCT RIVOS DCT URELA DCT DOKUD DCT KARIL DCT TAKOS DCT OMIFU DCT ODLIV DCT BEFRE DCT IVQOQ/N0474F300 T951 YAWOY YAWOY1V
Aircraft B77L/H-SDE2E3GHIJ4J5M1P2RWXY/LB1D1

Departure

Time N/A
Airport Shanghai Pudong International Airport (ZSPD)

Arrival

Time 2026-05-06 10:23
Airport Leipzig/Halle Airport (EDDP)
Time Latitude Longitude Altitude Speed Heading
2026-05-06 08:17 42.59514 30.35277 36119 ft 483 kts 286°
2026-05-06 08:17 42.61882 30.26832 36128 ft 477 kts 303°
2026-05-06 08:18 42.65945 30.19789 36118 ft 473 kts 317°
2026-05-06 08:18 42.70729 30.13656 36114 ft 473 kts 318°
2026-05-06 08:19 42.75521 30.07506 36130 ft 474 kts 317°
2026-05-06 08:19 42.80286 30.01296 36123 ft 475 kts 317°
2026-05-06 08:20 42.85043 29.95040 36119 ft 475 kts 317°
2026-05-06 08:20 42.89785 29.88781 36128 ft 476 kts 317°
2026-05-06 08:21 42.94541 29.82492 36122 ft 477 kts 317°
2026-05-06 08:21 42.99311 29.76174 36110 ft 478 kts 317°
2026-05-06 08:22 43.04056 29.69875 36119 ft 478 kts 317°
2026-05-06 08:22 43.08849 29.63497 36121 ft 478 kts 317°
2026-05-06 08:23 43.13624 29.57129 36120 ft 479 kts 317°
2026-05-06 08:23 43.17579 29.51842 36120 ft 479 kts 317°
2026-05-06 08:24 43.22342 29.45463 36126 ft 479 kts 317°
2026-05-06 08:24 43.27094 29.39083 36119 ft 479 kts 317°
2026-05-06 08:25 43.31857 29.32674 36112 ft 479 kts 316°
2026-05-06 08:25 43.36583 29.26300 36123 ft 478 kts 316°
2026-05-06 08:26 43.41329 29.19884 36120 ft 479 kts 316°
2026-05-06 08:26 43.46073 29.13457 36120 ft 479 kts 316°
2026-05-06 08:27 43.50791 29.07049 36119 ft 479 kts 316°
2026-05-06 08:27 43.55508 29.00626 36123 ft 479 kts 316°
2026-05-06 08:28 43.60278 28.94094 36123 ft 480 kts 316°
2026-05-06 08:28 43.64956 28.87624 36115 ft 480 kts 316°
2026-05-06 08:29 43.69669 28.81086 36120 ft 480 kts 316°
2026-05-06 08:29 43.74379 28.74542 36116 ft 480 kts 316°
2026-05-06 08:30 43.79083 28.67993 36107 ft 480 kts 316°
2026-05-06 08:30 43.83781 28.61438 36107 ft 479 kts 316°
2026-05-06 08:31 43.88477 28.54874 36103 ft 479 kts 316°
2026-05-06 08:31 43.93169 28.48296 36089 ft 480 kts 316°
2026-05-06 08:32 43.97864 28.41698 36081 ft 480 kts 316°
2026-05-06 08:32 44.02545 28.35104 36087 ft 480 kts 316°
2026-05-06 08:33 44.07189 28.28548 36084 ft 479 kts 316°
2026-05-06 08:33 44.11872 28.21920 36077 ft 479 kts 316°
2026-05-06 08:34 44.18900 28.11944 36070 ft 479 kts 316°
2026-05-06 08:35 44.23532 28.05349 36079 ft 478 kts 316°
2026-05-06 08:35 44.28204 27.98680 36073 ft 478 kts 316°
2026-05-06 08:36 44.32857 27.92024 36060 ft 478 kts 316°
2026-05-06 08:36 44.37488 27.85382 36068 ft 477 kts 316°
2026-05-06 08:37 44.42119 27.78725 36065 ft 477 kts 315°
2026-05-06 08:37 44.46744 27.72060 36063 ft 477 kts 315°
2026-05-06 08:38 44.51369 27.65379 36066 ft 477 kts 315°
2026-05-06 08:38 44.55976 27.58708 36060 ft 476 kts 315°
2026-05-06 08:39 44.60578 27.52028 36061 ft 477 kts 315°
2026-05-06 08:39 44.65136 27.45395 36062 ft 477 kts 315°
2026-05-06 08:40 44.69730 27.38693 36053 ft 476 kts 315°
2026-05-06 08:40 44.74314 27.31991 36057 ft 476 kts 315°
2026-05-06 08:41 44.78870 27.25312 36055 ft 476 kts 315°
2026-05-06 08:41 44.83446 27.18588 36056 ft 475 kts 315°
2026-05-06 08:42 44.88043 27.11817 36055 ft 475 kts 315°
2026-05-06 08:42 44.92595 27.05096 36057 ft 476 kts 315°
2026-05-06 08:43 44.97162 26.98336 36053 ft 476 kts 315°
2026-05-06 08:43 45.01735 26.91550 36048 ft 477 kts 315°
2026-05-06 08:44 45.06293 26.84768 36044 ft 476 kts 315°
2026-05-06 08:44 45.10851 26.77972 36047 ft 476 kts 315°
2026-05-06 08:45 45.15413 26.71151 36044 ft 476 kts 315°
2026-05-06 08:45 45.19955 26.64346 36051 ft 475 kts 315°
2026-05-06 08:46 45.24429 26.57623 36034 ft 475 kts 315°
2026-05-06 08:46 45.28962 26.50795 36048 ft 475 kts 315°
2026-05-06 08:47 45.33490 26.43959 36056 ft 475 kts 314°
2026-05-06 08:47 45.38004 26.37126 36041 ft 475 kts 314°
2026-05-06 08:48 45.42532 26.30255 36032 ft 475 kts 314°
2026-05-06 08:48 45.47036 26.23403 36032 ft 475 kts 314°
2026-05-06 08:49 45.51552 26.16516 36020 ft 475 kts 314°
2026-05-06 08:49 45.56055 26.09632 36030 ft 474 kts 314°
2026-05-06 08:50 45.60553 26.02736 36034 ft 475 kts 314°
2026-05-06 08:50 45.65050 25.95826 36026 ft 475 kts 314°
2026-05-06 08:51 45.69547 25.88897 36008 ft 475 kts 314°
2026-05-06 08:51 45.74033 25.81970 36040 ft 475 kts 314°
2026-05-06 08:52 45.78517 25.75025 36040 ft 475 kts 314°
2026-05-06 08:52 45.82997 25.68072 36038 ft 475 kts 313°
2026-05-06 08:53 45.87485 25.61087 36029 ft 475 kts 313°
2026-05-06 08:53 45.91958 25.54107 36028 ft 475 kts 313°
2026-05-06 08:54 45.96421 25.47124 36024 ft 474 kts 313°
2026-05-06 08:54 46.00880 25.40131 36017 ft 474 kts 313°
2026-05-06 08:55 46.05327 25.33140 36011 ft 474 kts 313°
2026-05-06 08:55 46.09774 25.26128 36009 ft 473 kts 313°
2026-05-06 08:56 46.14202 25.19130 36006 ft 472 kts 312°
2026-05-06 08:56 46.18583 25.12187 36002 ft 471 kts 312°
2026-05-06 08:57 46.23025 25.05132 36007 ft 470 kts 312°
2026-05-06 08:57 46.27417 24.98135 35999 ft 470 kts 312°
2026-05-06 08:58 46.31809 24.91121 36000 ft 470 kts 312°
2026-05-06 08:58 46.36190 24.84108 36002 ft 471 kts 312°
2026-05-06 08:59 46.40585 24.77052 36000 ft 472 kts 311°
2026-05-06 08:59 46.44989 24.69965 36014 ft 474 kts 311°
2026-05-06 09:00 46.49398 24.62850 36013 ft 474 kts 311°
2026-05-06 09:00 46.53808 24.55717 36020 ft 474 kts 311°
2026-05-06 09:01 46.58196 24.48599 36020 ft 474 kts 311°
2026-05-06 09:01 46.62593 24.41447 36017 ft 474 kts 311°
2026-05-06 09:02 46.66990 24.34278 36001 ft 475 kts 311°
2026-05-06 09:02 46.71392 24.27081 36001 ft 475 kts 311°
2026-05-06 09:03 46.75780 24.19886 35995 ft 475 kts 311°
2026-05-06 09:03 46.80165 24.12680 35997 ft 475 kts 311°
2026-05-06 09:04 46.84534 24.05480 35998 ft 474 kts 311°
2026-05-06 09:04 46.88909 23.98250 35992 ft 474 kts 311°
2026-05-06 09:05 46.93273 23.91020 35992 ft 474 kts 311°
2026-05-06 09:05 46.97631 23.83780 35994 ft 473 kts 311°
2026-05-06 09:06 47.01945 23.76593 35989 ft 473 kts 311°
2026-05-06 09:06 47.06289 23.69338 35992 ft 473 kts 311°
2026-05-06 09:07 47.10629 23.62070 35994 ft 473 kts 310°
2026-05-06 09:07 47.14961 23.54796 35988 ft 473 kts 310°
2026-05-06 09:08 47.19289 23.47509 35990 ft 473 kts 310°
2026-05-06 09:08 47.22916 23.41386 35987 ft 473 kts 310°
2026-05-06 09:09 47.27235 23.34078 35987 ft 473 kts 310°
2026-05-06 09:09 47.31545 23.26766 35988 ft 472 kts 310°
2026-05-06 09:10 47.35845 23.19449 35993 ft 472 kts 310°
2026-05-06 09:10 47.40147 23.12109 35990 ft 473 kts 310°
2026-05-06 09:11 47.44451 23.04749 35985 ft 474 kts 310°
2026-05-06 09:11 47.48746 22.97380 35993 ft 473 kts 310°
2026-05-06 09:12 47.53044 22.89988 35991 ft 473 kts 309°
2026-05-06 09:12 47.57337 22.82583 35992 ft 473 kts 309°
2026-05-06 09:13 47.61620 22.75176 35994 ft 473 kts 309°
2026-05-06 09:13 47.65895 22.67761 35989 ft 473 kts 309°
2026-05-06 09:14 47.70160 22.60343 35999 ft 473 kts 309°
2026-05-06 09:14 47.74443 22.52874 35989 ft 474 kts 309°
2026-05-06 09:15 47.78675 22.45361 35988 ft 474 kts 306°
2026-05-06 09:15 47.82179 22.37101 35985 ft 473 kts 298°
2026-05-06 09:16 47.85219 22.28884 35979 ft 473 kts 297°
2026-05-06 09:16 47.88439 22.20194 36041 ft 476 kts 298°
2026-05-06 09:17 47.91642 22.11597 35974 ft 473 kts 298°
2026-05-06 09:17 47.94828 22.03054 35964 ft 471 kts 297°
2026-05-06 09:18 47.97996 21.94530 35969 ft 469 kts 297°
2026-05-06 09:18 48.01148 21.86022 35968 ft 469 kts 297°
2026-05-06 09:19 48.04304 21.77473 35970 ft 470 kts 297°
2026-05-06 09:19 48.07455 21.68907 35969 ft 471 kts 297°
2026-05-06 09:20 48.10607 21.60311 35971 ft 473 kts 297°
2026-05-06 09:20 48.13747 21.51721 35960 ft 474 kts 297°
2026-05-06 09:21 48.16910 21.43039 35961 ft 475 kts 297°
2026-05-06 09:21 48.20063 21.34359 35951 ft 475 kts 297°
2026-05-06 09:22 48.23223 21.25632 35949 ft 476 kts 297°
2026-05-06 09:22 48.26368 21.16912 35944 ft 476 kts 297°
2026-05-06 09:23 48.29512 21.08168 35940 ft 475 kts 297°
2026-05-06 09:23 48.32647 20.99419 35938 ft 475 kts 296°
2026-05-06 09:24 48.35792 20.90614 35933 ft 475 kts 296°
2026-05-06 09:24 48.38892 20.81903 35931 ft 475 kts 296°
2026-05-06 09:25 48.42005 20.73128 35926 ft 475 kts 296°
2026-05-06 09:25 48.45105 20.64363 35938 ft 474 kts 295°
2026-05-06 09:26 48.48193 20.55596 35905 ft 474 kts 295°
2026-05-06 09:26 48.51279 20.46808 35929 ft 474 kts 295°
2026-05-06 09:27 48.54355 20.38020 35925 ft 473 kts 295°
2026-05-06 09:27 48.57418 20.29242 35938 ft 473 kts 295°
2026-05-06 09:28 48.60519 20.20461 35917 ft 473 kts 295°
2026-05-06 09:28 48.63682 20.11739 35911 ft 473 kts 296°
2026-05-06 09:29 48.66841 20.03013 35918 ft 474 kts 296°
2026-05-06 09:29 48.69993 19.94247 35935 ft 474 kts 295°
2026-05-06 09:30 48.73131 19.85462 35911 ft 475 kts 295°
2026-05-06 09:30 48.76269 19.76650 35914 ft 474 kts 295°
2026-05-06 09:31 48.79392 19.67849 35911 ft 474 kts 295°
2026-05-06 09:31 48.82508 19.59038 35922 ft 474 kts 295°
2026-05-06 09:32 48.85622 19.50206 35905 ft 475 kts 295°
2026-05-06 09:32 48.88734 19.41349 35896 ft 475 kts 295°
2026-05-06 09:33 48.91836 19.32485 35895 ft 475 kts 295°
2026-05-06 09:33 48.94910 19.23672 35883 ft 475 kts 295°
2026-05-06 09:34 48.97996 19.14799 35892 ft 475 kts 294°
2026-05-06 09:34 49.01079 19.05904 35878 ft 474 kts 294°
2026-05-06 09:35 49.04169 18.96957 35869 ft 474 kts 294°
2026-05-06 09:35 49.07209 18.88121 35878 ft 473 kts 294°
2026-05-06 09:36 49.10253 18.79243 35881 ft 472 kts 293°
2026-05-06 09:36 49.13292 18.70353 35866 ft 471 kts 293°
2026-05-06 09:37 49.16334 18.61421 35862 ft 471 kts 293°
2026-05-06 09:37 49.19310 18.52648 35859 ft 470 kts 293°
2026-05-06 09:38 49.22312 18.43774 35905 ft 470 kts 292°
2026-05-06 09:38 49.25303 18.34902 35891 ft 468 kts 292°
2026-05-06 09:39 49.28275 18.26056 35885 ft 467 kts 292°
2026-05-06 09:39 49.31243 18.17181 35850 ft 467 kts 292°
2026-05-06 09:40 49.34203 18.08304 35873 ft 467 kts 292°
2026-05-06 09:40 49.38630 17.94974 35859 ft 468 kts 292°
2026-05-06 09:41 49.41576 17.86060 35839 ft 468 kts 292°
2026-05-06 09:41 49.44520 17.77128 35844 ft 469 kts 292°
2026-05-06 09:42 49.47454 17.68189 35844 ft 469 kts 291°
2026-05-06 09:42 49.50381 17.59240 35839 ft 469 kts 291°
2026-05-06 09:43 49.53303 17.50275 35847 ft 469 kts 291°
2026-05-06 09:43 49.56220 17.41296 35852 ft 469 kts 291°
2026-05-06 09:44 49.59136 17.32285 35843 ft 469 kts 291°
2026-05-06 09:44 49.62044 17.23267 35848 ft 470 kts 291°
2026-05-06 09:45 49.64934 17.14269 35837 ft 470 kts 291°
2026-05-06 09:45 49.67838 17.05200 35836 ft 471 kts 291°
2026-05-06 09:46 49.70731 16.96129 35831 ft 471 kts 291°
2026-05-06 09:46 49.73618 16.87048 35839 ft 471 kts 290°
2026-05-06 09:47 49.76504 16.77934 35833 ft 471 kts 290°
2026-05-06 09:47 49.79376 16.68830 35828 ft 472 kts 290°
2026-05-06 09:48 49.82252 16.59681 35825 ft 472 kts 290°
2026-05-06 09:48 49.85116 16.50536 35848 ft 472 kts 290°
2026-05-06 09:49 49.87966 16.41405 35823 ft 471 kts 290°
2026-05-06 09:49 49.90808 16.32261 35827 ft 471 kts 290°
2026-05-06 09:50 49.93643 16.23107 35818 ft 471 kts 290°
2026-05-06 09:50 49.96449 16.14011 35822 ft 471 kts 290°
2026-05-06 09:51 49.99268 16.04846 35826 ft 470 kts 290°
2026-05-06 09:51 50.02165 15.95797 35818 ft 473 kts 295°
2026-05-06 09:52 50.05801 15.87209 35832 ft 475 kts 298°
2026-05-06 09:52 50.08917 15.80084 35826 ft 475 kts 298°
2026-05-06 09:53 50.12605 15.71560 35851 ft 474 kts 298°
2026-05-06 09:53 50.16266 15.63006 35817 ft 474 kts 298°
2026-05-06 09:54 50.19907 15.54458 35817 ft 473 kts 298°
2026-05-06 09:54 50.23534 15.45916 35799 ft 468 kts 298°
2026-05-06 09:55 50.27082 15.37549 35653 ft 457 kts 297°
2026-05-06 09:55 50.28831 15.33408 35531 ft 454 kts 297°
2026-05-06 09:55 50.30564 15.29295 35326 ft 452 kts 297°
2026-05-06 09:56 50.32292 15.25186 35052 ft 452 kts 297°
2026-05-06 09:56 50.34018 15.21077 34781 ft 452 kts 296°
2026-05-06 09:56 50.35747 15.16954 34481 ft 452 kts 296°
2026-05-06 09:56 50.37471 15.12838 34224 ft 451 kts 296°
2026-05-06 09:57 50.39189 15.08732 33962 ft 450 kts 295°
2026-05-06 09:57 50.40901 15.04635 33648 ft 449 kts 295°
2026-05-06 09:57 50.42614 15.00524 33191 ft 451 kts 295°
2026-05-06 09:57 50.44331 14.96399 32716 ft 454 kts 296°
2026-05-06 09:58 50.46092 14.92272 32192 ft 458 kts 300°
2026-05-06 09:58 50.48355 14.88652 31770 ft 473 kts 315°
2026-05-06 09:58 50.51154 14.85884 31543 ft 481 kts 327°
2026-05-06 09:58 50.54336 14.84075 31320 ft 489 kts 340°
2026-05-06 09:59 50.57652 14.82919 31060 ft 489 kts 342°
2026-05-06 09:59 50.60985 14.81822 30783 ft 488 kts 342°
2026-05-06 09:59 50.64295 14.80713 30514 ft 486 kts 342°
2026-05-06 09:59 50.67597 14.79563 30261 ft 484 kts 341°
2026-05-06 10:00 50.70867 14.78386 29999 ft 481 kts 341°
2026-05-06 10:00 50.74084 14.77205 29763 ft 479 kts 341°
2026-05-06 10:00 50.77371 14.75988 29476 ft 477 kts 341°
2026-05-06 10:00 50.80552 14.74809 29207 ft 475 kts 341°
2026-05-06 10:01 50.83763 14.73622 28974 ft 473 kts 341°
2026-05-06 10:01 50.86957 14.72442 28698 ft 470 kts 341°
2026-05-06 10:01 50.90005 14.70851 28406 ft 454 kts 326°
2026-05-06 10:01 50.92534 14.67967 28030 ft 435 kts 308°
2026-05-06 10:02 50.94355 14.64334 27502 ft 421 kts 296°
2026-05-06 10:02 50.95628 14.60242 26959 ft 408 kts 284°
2026-05-06 10:02 50.96417 14.55982 26455 ft 399 kts 281°
2026-05-06 10:02 50.97145 14.51748 25940 ft 395 kts 281°
2026-05-06 10:03 50.97860 14.47556 25438 ft 392 kts 281°
2026-05-06 10:03 50.98572 14.43405 24958 ft 388 kts 281°
2026-05-06 10:03 50.99282 14.39296 24466 ft 385 kts 281°
2026-05-06 10:03 50.99994 14.35210 23988 ft 383 kts 282°
2026-05-06 10:04 51.00703 14.31158 23502 ft 380 kts 282°
2026-05-06 10:04 51.01412 14.27117 22995 ft 379 kts 281°
2026-05-06 10:04 51.02114 14.23106 22471 ft 376 kts 281°
2026-05-06 10:04 51.02813 14.19118 21981 ft 373 kts 281°
2026-05-06 10:05 51.03504 14.15162 21510 ft 370 kts 281°
2026-05-06 10:05 51.04187 14.11247 21058 ft 367 kts 281°
2026-05-06 10:05 51.04866 14.07342 20595 ft 365 kts 281°
2026-05-06 10:05 51.05538 14.03473 20144 ft 363 kts 281°
2026-05-06 10:06 51.06206 13.99622 19691 ft 360 kts 281°
2026-05-06 10:06 51.06868 13.95791 19245 ft 358 kts 281°
2026-05-06 10:06 51.07526 13.91974 18801 ft 357 kts 281°
2026-05-06 10:06 51.08178 13.88182 18366 ft 355 kts 281°
2026-05-06 10:07 51.08827 13.84406 17903 ft 353 kts 281°
2026-05-06 10:07 51.09472 13.80640 17399 ft 352 kts 281°
2026-05-06 10:07 51.10112 13.76899 16939 ft 349 kts 281°
2026-05-06 10:07 51.10745 13.73195 16478 ft 347 kts 281°
2026-05-06 10:08 51.11375 13.69495 16030 ft 344 kts 281°
2026-05-06 10:08 51.11997 13.65837 15585 ft 342 kts 281°
2026-05-06 10:08 51.12615 13.62193 15142 ft 339 kts 281°
2026-05-06 10:08 51.13227 13.58571 14715 ft 337 kts 281°
2026-05-06 10:09 51.13833 13.54984 14262 ft 335 kts 281°
2026-05-06 10:09 51.14434 13.51416 13819 ft 332 kts 281°
2026-05-06 10:09 51.15031 13.47869 13367 ft 330 kts 281°
2026-05-06 10:09 51.15619 13.44361 12897 ft 327 kts 281°
2026-05-06 10:10 51.16206 13.40862 12449 ft 324 kts 281°
2026-05-06 10:10 51.16783 13.37409 12011 ft 322 kts 281°
2026-05-06 10:10 51.17393 13.33986 11580 ft 320 kts 285°
2026-05-06 10:10 51.18212 13.30722 11175 ft 318 kts 290°
2026-05-06 10:11 51.19132 13.27536 10748 ft 316 kts 291°
2026-05-06 10:11 51.20054 13.24395 10499 ft 308 kts 291°
2026-05-06 10:11 51.20944 13.21369 10343 ft 296 kts 291°
2026-05-06 10:11 51.21802 13.18440 10204 ft 284 kts 291°
2026-05-06 10:12 51.22618 13.15640 10093 ft 273 kts 291°
2026-05-06 10:12 51.23387 13.12988 9955 ft 261 kts 291°
2026-05-06 10:12 51.24140 13.10382 9854 ft 249 kts 291°
2026-05-06 10:12 51.24839 13.07954 9745 ft 245 kts 290°
2026-05-06 10:13 51.25568 13.05404 9453 ft 258 kts 291°
2026-05-06 10:13 51.26332 13.02731 9139 ft 262 kts 291°
2026-05-06 10:13 51.27080 13.00120 8824 ft 261 kts 291°
2026-05-06 10:13 51.27828 12.97509 8497 ft 256 kts 291°
2026-05-06 10:14 51.28563 12.94941 8203 ft 252 kts 291°
2026-05-06 10:14 51.29283 12.92419 7898 ft 247 kts 291°
2026-05-06 10:14 51.29989 12.89946 7604 ft 242 kts 291°
2026-05-06 10:14 51.30683 12.87510 7328 ft 240 kts 291°
2026-05-06 10:15 51.31374 12.85077 7038 ft 243 kts 291°
2026-05-06 10:15 51.32085 12.82570 6756 ft 250 kts 291°
2026-05-06 10:15 51.32806 12.80029 6482 ft 252 kts 291°
2026-05-06 10:15 51.33525 12.77496 6159 ft 249 kts 291°
2026-05-06 10:16 51.34217 12.75060 5827 ft 231 kts 291°
2026-05-06 10:16 51.34864 12.72780 5545 ft 222 kts 291°
2026-05-06 10:16 51.35501 12.70524 5362 ft 224 kts 291°
2026-05-06 10:16 51.36140 12.68255 5339 ft 230 kts 291°
2026-05-06 10:17 51.36811 12.65870 5015 ft 238 kts 291°
2026-05-06 10:17 51.37491 12.63463 4717 ft 233 kts 291°
2026-05-06 10:17 51.38147 12.61138 4524 ft 223 kts 291°
2026-05-06 10:17 51.38767 12.58942 4395 ft 211 kts 291°
2026-05-06 10:18 51.39363 12.56808 4296 ft 211 kts 292°
2026-05-06 10:18 51.39973 12.54646 4024 ft 211 kts 291°
2026-05-06 10:18 51.40559 12.52552 3780 ft 203 kts 292°
2026-05-06 10:18 51.41131 12.50514 3505 ft 198 kts 292°
2026-05-06 10:19 51.41689 12.48519 3247 ft 196 kts 292°
2026-05-06 10:19 51.42139 12.46481 3063 ft 196 kts 277°
2026-05-06 10:19 51.42186 12.44317 2810 ft 193 kts 271°
2026-05-06 10:19 51.42178 12.42219 2531 ft 183 kts 267°
2026-05-06 10:20 51.42092 12.40262 2328 ft 169 kts 265°
2026-05-06 10:20 51.42008 12.38501 2077 ft 148 kts 265°
2026-05-06 10:20 51.41935 12.36962 1879 ft 134 kts 266°
2026-05-06 10:20 51.41864 12.35443 1733 ft 140 kts 265°
2026-05-06 10:21 51.41791 12.33897 1535 ft 138 kts 266°
2026-05-06 10:21 51.41720 12.32378 1353 ft 136 kts 266°
2026-05-06 10:21 51.41649 12.30877 1152 ft 137 kts 265°
2026-05-06 10:21 51.41577 12.29326 992 ft 142 kts 266°
2026-05-06 10:22 51.41502 12.27739 789 ft 143 kts 266°
2026-05-06 10:22 51.41428 12.26157 601 ft 142 kts 265°
2026-05-06 10:22 51.41358 12.24593 478 ft 135 kts 267°
2026-05-06 10:22 51.41291 12.23222 469 ft 111 kts 266°
2026-05-06 10:23 51.41242 12.22236 464 ft 59 kts 266°
2026-05-06 10:23 51.41160 12.21749 460 ft 31 kts 235°
2026-05-06 10:23 51.41114 12.21686 462 ft 3 kts 187°
2026-05-06 10:23 51.41093 12.21695 463 ft 5 kts 158°
2026-05-06 10:24 51.41059 12.21807 464 ft 14 kts 95°
2026-05-06 10:24 51.41062 12.21971 463 ft 15 kts 87°
2026-05-06 10:24 51.41067 12.22137 464 ft 15 kts 87°
2026-05-06 10:24 51.41078 12.22303 464 ft 15 kts 84°
2026-05-06 10:25 51.41088 12.22467 464 ft 15 kts 84°
2026-05-06 10:25 51.41099 12.22633 466 ft 15 kts 84°
2026-05-06 10:25 51.41108 12.22798 469 ft 15 kts 87°
2026-05-06 10:25 51.41113 12.22964 473 ft 15 kts 87°
2026-05-06 10:26 51.41117 12.23130 469 ft 15 kts 87°
2026-05-06 10:26 51.41123 12.23296 477 ft 15 kts 86°
2026-05-06 10:26 51.41131 12.23462 480 ft 15 kts 86°
2026-05-06 10:26 51.41138 12.23631 476 ft 16 kts 85°
2026-05-06 10:27 51.41147 12.23813 470 ft 16 kts 85°
2026-05-06 10:27 51.41155 12.23992 476 ft 16 kts 85°
2026-05-06 10:27 51.41165 12.24181 474 ft 18 kts 85°
2026-05-06 10:27 51.41175 12.24378 471 ft 18 kts 85°
2026-05-06 10:28 51.41147 12.24556 470 ft 18 kts 148°
2026-05-06 10:28 51.41056 12.24689 469 ft 19 kts 164°
2026-05-06 10:28 51.41002 12.24700 472 ft 1 kts 174°
2026-05-06 10:28 51.40986 12.24703 471 ft 0 kts 174°
2026-05-06 10:29 51.40975 12.24704 469 ft 3 kts 174°
2026-05-06 10:29 51.40946 12.24708 470 ft 6 kts 175°
2026-05-06 10:29 51.40905 12.24733 470 ft 7 kts 130°
2026-05-06 10:29 51.40906 12.24804 470 ft 6 kts 84°
2026-05-06 10:30 51.40907 12.24823 471 ft 0 kts 85°